sat.trackr.live / text

‹ back to catalog

STARLINK-4580

NORAD 53579 · 2022-101BE

PAYLOAD ACTIVE UNKNOWN

§ Identity

Operator
Country
US
Launch date
2022-08-19
Launch site
AFETR
Launch vehicle
Mass (kg)
RCS (m²)

Purposes: comms

External: N2YO · Heavens-Above · Gunter

§ Orbital elements

Epoch: 2026-05-25T01:58:51.241728Z

Period
95.44 min
Inclination
53.2139°
Eccentricity
0.0001635
Mean motion
15.08839542 rev/d
Perigee alt
538.6 km
Apogee alt
540.9 km
Semi-major
6,917.9 km
B*
2.8694e-6
RAAN
70.7724°
Arg perigee
86.9864°
Mean anomaly
273.1315°
Rev number
20,798

§ Raw data

STARLINK-45801 53579U 22101BE  26145.08253752 -.00000242  00000+0  28694-5 0  99972 53579  53.2139  70.7724 0001635  86.9864 273.1315 15.08839542207980

JSON: /api/v1/satellites/53579 · /tle

For live sub-satellite position, see the globe view (requires WebGL).

§ Visibility from observer

Set your observer location to see the next 7 days of passes ≥ 10°. The values pass through the URL so the page stays shareable.

No JS? Fill the form by hand. The geolocation button needs JavaScript.